TUP9669 UUWW-URWW

Flight info

Callsign TUP9669
Flight time 1h 20m
Altitude 35000
Route K0817F350 TOGMO M56 ABAGI B105 NATIT
Aircraft B752/M-SDE2E3FGHIJ3J4J7RWXY/LB1

Departure

Time 2026-05-07 18:14
Airport Vnukovo International Airport (UUWW)

Arrival

Time 2026-05-07 19:34
Airport Volgograd International Airport (URWW)
Time Latitude Longitude Altitude Speed Heading
2026-05-07 17:46 55.60702 37.28096 693 ft 0 kts 45°
2026-05-07 18:01 55.60700 37.28092 692 ft 2 kts 45°
2026-05-07 18:01 55.60689 37.28073 692 ft 2 kts 45°
2026-05-07 18:01 55.60679 37.28055 692 ft 2 kts 45°
2026-05-07 18:01 55.60668 37.28035 692 ft 2 kts 44°
2026-05-07 18:02 55.60651 37.27990 692 ft 0 kts 81°
2026-05-07 18:06 55.60651 37.27991 692 ft 0 kts 79°
2026-05-07 18:06 55.60654 37.28000 692 ft 0 kts 71°
2026-05-07 18:07 55.60651 37.28015 692 ft 3 kts 127°
2026-05-07 18:07 55.60627 37.28052 692 ft 6 kts 141°
2026-05-07 18:07 55.60571 37.28133 692 ft 7 kts 134°
2026-05-07 18:07 55.60552 37.28142 692 ft 3 kts 209°
2026-05-07 18:08 55.60524 37.28082 692 ft 13 kts 225°
2026-05-07 18:08 55.60443 37.27939 692 ft 16 kts 226°
2026-05-07 18:08 55.60373 37.27858 692 ft 11 kts 184°
2026-05-07 18:08 55.60258 37.27838 692 ft 18 kts 182°
2026-05-07 18:09 55.60144 37.27882 692 ft 2 kts 163°
2026-05-07 18:09 55.60100 37.27859 692 ft 3 kts 219°
2026-05-07 18:09 55.60092 37.27855 692 ft 4 kts 183°
2026-05-07 18:09 55.60091 37.27917 692 ft 4 kts 64°
2026-05-07 18:10 55.60084 37.28024 692 ft 11 kts 112°
2026-05-07 18:10 55.60078 37.28233 692 ft 21 kts 84°
2026-05-07 18:10 55.60117 37.28472 692 ft 19 kts 51°
2026-05-07 18:10 55.60206 37.28641 692 ft 14 kts 59°
2026-05-07 18:11 55.60178 37.28761 692 ft 15 kts 131°
2026-05-07 18:11 55.60109 37.28862 692 ft 21 kts 156°
2026-05-07 18:11 55.59919 37.28948 692 ft 20 kts 165°
2026-05-07 18:11 55.59820 37.28989 692 ft 8 kts 171°
2026-05-07 18:12 55.59792 37.28968 692 ft 5 kts 233°
2026-05-07 18:12 55.59786 37.28943 692 ft 2 kts 246°
2026-05-07 18:12 55.59775 37.28899 692 ft 4 kts 246°
2026-05-07 18:12 55.59770 37.28880 692 ft 0 kts 247°
2026-05-07 18:13 55.59750 37.28790 692 ft 23 kts 248°
2026-05-07 18:13 55.59600 37.28122 692 ft 93 kts 248°
2026-05-07 18:13 55.59277 37.26688 694 ft 157 kts 248°
2026-05-07 18:14 55.58829 37.24708 1040 ft 185 kts 249°
2026-05-07 18:14 55.58315 37.22660 1951 ft 185 kts 235°
2026-05-07 18:14 55.57176 37.21750 2658 ft 203 kts 167°
2026-05-07 18:14 55.56238 37.23517 3316 ft 225 kts 97°
2026-05-07 18:15 55.56316 37.26166 4267 ft 216 kts 83°
2026-05-07 18:15 55.56551 37.28951 4593 ft 240 kts 82°
2026-05-07 18:15 55.56827 37.31956 5121 ft 255 kts 82°
2026-05-07 18:15 55.57124 37.35052 5830 ft 260 kts 82°
2026-05-07 18:16 55.57445 37.38230 6568 ft 264 kts 82°
2026-05-07 18:16 55.57626 37.41449 7013 ft 274 kts 95°
2026-05-07 18:16 55.57459 37.44865 7015 ft 278 kts 98°
2026-05-07 18:16 55.57301 37.48272 7705 ft 279 kts 97°
2026-05-07 18:17 55.57145 37.51576 8682 ft 274 kts 98°
2026-05-07 18:17 55.56977 37.55004 9019 ft 289 kts 97°
2026-05-07 18:17 55.56931 37.58678 9143 ft 314 kts 90°
2026-05-07 18:17 55.56943 37.62497 10029 ft 313 kts 92°
2026-05-07 18:18 55.56937 37.66360 10535 ft 328 kts 93°
2026-05-07 18:18 55.56937 37.70501 10885 ft 348 kts 92°
2026-05-07 18:18 55.56938 37.74877 11219 ft 366 kts 92°
2026-05-07 18:18 55.56940 37.79418 11857 ft 374 kts 92°
2026-05-07 18:19 55.56941 37.84049 12577 ft 379 kts 92°
2026-05-07 18:19 55.56939 37.88675 13316 ft 382 kts 92°
2026-05-07 18:19 55.56935 37.93435 13976 ft 389 kts 92°
2026-05-07 18:19 55.56929 37.98217 14744 ft 391 kts 91°
2026-05-07 18:20 55.56922 38.03058 15430 ft 395 kts 91°
2026-05-07 18:20 55.56913 38.07870 16120 ft 398 kts 91°
2026-05-07 18:20 55.56901 38.12875 16715 ft 405 kts 91°
2026-05-07 18:20 55.56887 38.17840 17459 ft 406 kts 91°
2026-05-07 18:21 55.56872 38.22822 18001 ft 412 kts 91°
2026-05-07 18:21 55.56854 38.27853 18688 ft 413 kts 91°
2026-05-07 18:21 55.56834 38.32978 19318 ft 417 kts 91°
2026-05-07 18:21 55.56811 38.38066 19960 ft 420 kts 91°
2026-05-07 18:22 55.56786 38.43273 20564 ft 422 kts 91°
2026-05-07 18:22 55.56769 38.46688 21011 ft 423 kts 91°
2026-05-07 18:22 55.56729 38.53706 21731 ft 429 kts 91°
2026-05-07 18:22 55.56697 38.58952 22376 ft 431 kts 91°
2026-05-07 18:23 55.56663 38.64263 22988 ft 432 kts 91°
2026-05-07 18:23 55.56626 38.69521 23452 ft 436 kts 92°
2026-05-07 18:23 55.56585 38.74942 23988 ft 439 kts 92°
2026-05-07 18:23 55.56543 38.80296 24516 ft 441 kts 91°
2026-05-07 18:24 55.56498 38.85680 24971 ft 445 kts 91°
2026-05-07 18:24 55.56450 38.91179 25528 ft 445 kts 91°
2026-05-07 18:24 55.56400 38.96672 25960 ft 449 kts 91°
2026-05-07 18:24 55.56347 39.02183 26411 ft 452 kts 91°
2026-05-07 18:25 55.56291 39.07715 26924 ft 453 kts 91°
2026-05-07 18:25 55.56233 39.13312 27254 ft 458 kts 91°
2026-05-07 18:25 55.56172 39.18864 27769 ft 458 kts 91°
2026-05-07 18:25 55.56107 39.24508 28192 ft 461 kts 90°
2026-05-07 18:26 55.56040 39.30169 28661 ft 461 kts 90°
2026-05-07 18:26 55.55970 39.35848 28992 ft 465 kts 90°
2026-05-07 18:26 55.55897 39.41548 29343 ft 469 kts 90°
2026-05-07 18:26 55.55820 39.47311 29862 ft 467 kts 90°
2026-05-07 18:27 55.55741 39.53123 30100 ft 473 kts 90°
2026-05-07 18:27 55.55659 39.58911 30480 ft 474 kts 90°
2026-05-07 18:27 55.55573 39.64737 30945 ft 474 kts 90°
2026-05-07 18:28 55.55394 39.76397 31554 ft 478 kts 90°
2026-05-07 18:28 55.55298 39.82325 31798 ft 482 kts 91°
2026-05-07 18:28 55.55199 39.88284 32159 ft 482 kts 90°
2026-05-07 18:28 55.54954 39.94168 32621 ft 481 kts 98°
2026-05-07 18:29 55.54218 39.99920 32904 ft 483 kts 107°
2026-05-07 18:29 55.51500 40.10791 32904 ft 482 kts 116°
2026-05-07 18:30 55.48470 40.21261 32890 ft 475 kts 117°
2026-05-07 18:30 55.45409 40.31516 32900 ft 473 kts 117°
2026-05-07 18:31 55.42313 40.41750 32897 ft 473 kts 117°
2026-05-07 18:31 55.39215 40.51910 32894 ft 471 kts 117°
2026-05-07 18:32 55.36114 40.62024 32887 ft 470 kts 117°
2026-05-07 18:33 55.30014 40.81785 32888 ft 469 kts 118°
2026-05-07 18:33 55.26904 40.91801 32886 ft 470 kts 118°
2026-05-07 18:34 55.23190 41.01101 32893 ft 468 kts 135°
2026-05-07 18:34 55.18056 41.08087 32890 ft 468 kts 148°
2026-05-07 18:35 55.12551 41.14166 32882 ft 468 kts 148°
2026-05-07 18:35 55.07072 41.20215 32880 ft 466 kts 147°
2026-05-07 18:36 55.01562 41.26276 32885 ft 465 kts 147°
2026-05-07 18:36 54.96112 41.32252 32891 ft 465 kts 147°
2026-05-07 18:37 54.90654 41.38216 32887 ft 465 kts 147°
2026-05-07 18:37 54.85162 41.44197 32894 ft 465 kts 147°
2026-05-07 18:38 54.79682 41.50145 32890 ft 465 kts 147°
2026-05-07 18:38 54.74178 41.56101 32899 ft 465 kts 147°
2026-05-07 18:39 54.68731 41.61976 32905 ft 465 kts 147°
2026-05-07 18:39 54.63232 41.67888 32905 ft 465 kts 148°
2026-05-07 18:40 54.57737 41.73776 32911 ft 464 kts 148°
2026-05-07 18:40 54.52282 41.79603 32921 ft 464 kts 148°
2026-05-07 18:41 54.46786 41.85455 32914 ft 464 kts 148°
2026-05-07 18:41 54.41344 41.91232 32916 ft 463 kts 148°
2026-05-07 18:42 54.35842 41.97053 32915 ft 463 kts 148°
2026-05-07 18:42 54.30377 42.02817 32918 ft 463 kts 148°
2026-05-07 18:43 54.24906 42.08568 32915 ft 463 kts 148°
2026-05-07 18:43 54.19414 42.14323 32922 ft 462 kts 148°
2026-05-07 18:44 54.13899 42.20086 32926 ft 463 kts 148°
2026-05-07 18:44 54.08416 42.25796 32919 ft 463 kts 148°
2026-05-07 18:45 54.02947 42.31474 32929 ft 460 kts 148°
2026-05-07 18:45 53.97446 42.37168 32928 ft 461 kts 148°
2026-05-07 18:46 53.91944 42.42844 32931 ft 463 kts 148°
2026-05-07 18:46 53.86924 42.48007 32929 ft 462 kts 148°
2026-05-07 18:47 53.81431 42.53641 32930 ft 462 kts 148°
2026-05-07 18:47 53.75962 42.59233 32929 ft 462 kts 148°
2026-05-07 18:48 53.70433 42.64869 32928 ft 462 kts 148°
2026-05-07 18:48 53.64745 42.69696 32933 ft 461 kts 157°
2026-05-07 18:49 53.58849 42.74034 32931 ft 462 kts 157°
2026-05-07 18:49 53.52968 42.78307 32929 ft 463 kts 157°
2026-05-07 18:50 53.47091 42.82549 32931 ft 463 kts 157°
2026-05-07 18:50 53.41161 42.86809 32931 ft 463 kts 157°
2026-05-07 18:51 53.35266 42.91031 32929 ft 463 kts 157°
2026-05-07 18:51 53.29344 42.95258 32930 ft 464 kts 157°
2026-05-07 18:52 53.23429 42.99468 32932 ft 462 kts 157°
2026-05-07 18:52 53.17594 43.03608 32931 ft 450 kts 157°
2026-05-07 18:53 53.11875 43.07712 32937 ft 453 kts 156°
2026-05-07 18:53 53.06116 43.12008 32934 ft 452 kts 156°
2026-05-07 18:54 53.00351 43.16289 32937 ft 453 kts 156°
2026-05-07 18:54 52.94617 43.20534 32934 ft 454 kts 156°
2026-05-07 18:55 52.88859 43.24783 32935 ft 454 kts 156°
2026-05-07 18:55 52.83084 43.29033 32943 ft 453 kts 156°
2026-05-07 18:56 52.77328 43.33256 32947 ft 454 kts 156°
2026-05-07 18:56 52.71549 43.37484 32952 ft 455 kts 156°
2026-05-07 18:57 52.65712 43.41741 32955 ft 467 kts 156°
2026-05-07 18:57 52.59737 43.46085 32954 ft 473 kts 156°
2026-05-07 18:58 52.53725 43.50444 32952 ft 470 kts 156°
2026-05-07 18:58 52.47741 43.54771 32955 ft 471 kts 156°
2026-05-07 18:59 52.41753 43.59087 32955 ft 471 kts 156°
2026-05-07 18:59 52.35744 43.63405 32957 ft 470 kts 156°
2026-05-07 19:00 52.29786 43.67674 32957 ft 470 kts 157°
2026-05-07 19:00 52.23794 43.71955 32960 ft 471 kts 157°
2026-05-07 19:01 52.17778 43.76239 32964 ft 471 kts 156°
2026-05-07 19:01 52.11788 43.80494 32961 ft 471 kts 156°
2026-05-07 19:02 52.05814 43.84724 32965 ft 469 kts 156°
2026-05-07 19:02 51.99833 43.88947 32883 ft 471 kts 156°
2026-05-07 19:02 51.96814 43.91072 32608 ft 474 kts 156°
2026-05-07 19:03 51.93801 43.93192 32341 ft 473 kts 156°
2026-05-07 19:03 51.90774 43.95318 32071 ft 472 kts 156°
2026-05-07 19:03 51.87770 43.97425 31967 ft 471 kts 156°
2026-05-07 19:04 51.81755 44.01636 31973 ft 474 kts 156°
2026-05-07 19:04 51.75684 44.05871 31970 ft 474 kts 156°
2026-05-07 19:05 51.69656 44.10066 31971 ft 475 kts 156°
2026-05-07 19:05 51.63594 44.14270 31970 ft 475 kts 156°
2026-05-07 19:06 51.57519 44.18473 31971 ft 477 kts 156°
2026-05-07 19:06 51.48434 44.24734 31970 ft 476 kts 156°
2026-05-07 19:07 51.42313 44.28937 31971 ft 477 kts 156°
2026-05-07 19:07 51.36238 44.33096 31970 ft 477 kts 156°
2026-05-07 19:08 51.30149 44.37253 31971 ft 477 kts 156°
2026-05-07 19:08 51.24066 44.41394 31970 ft 477 kts 156°
2026-05-07 19:09 51.17845 44.45169 31977 ft 477 kts 166°
2026-05-07 19:09 51.11274 44.46135 31976 ft 478 kts 182°
2026-05-07 19:10 51.04674 44.45725 31960 ft 478 kts 183°
2026-05-07 19:10 50.98026 44.45186 31960 ft 478 kts 183°
2026-05-07 19:11 50.91409 44.44599 31959 ft 478 kts 184°
2026-05-07 19:11 50.84901 44.44005 31959 ft 479 kts 184°
2026-05-07 19:12 50.78274 44.43393 31959 ft 479 kts 184°
2026-05-07 19:12 50.71620 44.42779 31963 ft 480 kts 184°
2026-05-07 19:13 50.64988 44.42167 31963 ft 479 kts 184°
2026-05-07 19:13 50.61686 44.41863 31949 ft 466 kts 184°
2026-05-07 19:13 50.58520 44.41573 31465 ft 455 kts 184°
2026-05-07 19:14 50.55354 44.41281 30845 ft 454 kts 184°
2026-05-07 19:14 50.52185 44.40989 30244 ft 463 kts 183°
2026-05-07 19:14 50.48960 44.40693 29627 ft 472 kts 183°
2026-05-07 19:14 50.45647 44.40389 28973 ft 474 kts 183°
2026-05-07 19:15 50.42390 44.40092 28321 ft 470 kts 183°
2026-05-07 19:15 50.39140 44.39796 27677 ft 462 kts 183°
2026-05-07 19:15 50.35999 44.39509 27070 ft 456 kts 183°
2026-05-07 19:15 50.32839 44.39222 26474 ft 451 kts 182°
2026-05-07 19:16 50.29729 44.38939 25895 ft 449 kts 182°
2026-05-07 19:16 50.26604 44.38655 25321 ft 448 kts 182°
2026-05-07 19:16 50.23510 44.38375 24740 ft 445 kts 182°
2026-05-07 19:16 50.20444 44.38097 24179 ft 441 kts 182°
2026-05-07 19:17 50.17399 44.37821 23635 ft 438 kts 182°
2026-05-07 19:17 50.14407 44.37551 23102 ft 435 kts 182°
2026-05-07 19:17 50.11401 44.37280 22572 ft 432 kts 182°
2026-05-07 19:17 50.08377 44.37008 22041 ft 429 kts 182°
2026-05-07 19:18 50.05422 44.36742 21522 ft 426 kts 182°
2026-05-07 19:18 50.02459 44.36476 21000 ft 423 kts 182°
2026-05-07 19:18 49.99529 44.36213 20489 ft 421 kts 182°
2026-05-07 19:18 49.96625 44.35953 19982 ft 418 kts 182°
2026-05-07 19:19 49.93748 44.35695 19475 ft 415 kts 181°
2026-05-07 19:19 49.90905 44.35440 18973 ft 411 kts 181°
2026-05-07 19:19 49.88042 44.35184 18472 ft 408 kts 181°
2026-05-07 19:19 49.85626 44.34969 18052 ft 407 kts 181°
2026-05-07 19:20 49.82834 44.34721 17556 ft 404 kts 181°
2026-05-07 19:20 49.80024 44.34470 17047 ft 400 kts 181°
2026-05-07 19:20 49.77285 44.34227 16565 ft 397 kts 181°
2026-05-07 19:20 49.74516 44.33981 16079 ft 394 kts 181°
2026-05-07 19:21 49.71813 44.33741 15597 ft 392 kts 181°
2026-05-07 19:21 49.69111 44.33502 15098 ft 389 kts 181°
2026-05-07 19:21 49.66419 44.33263 14630 ft 386 kts 181°
2026-05-07 19:21 49.63742 44.33026 14155 ft 383 kts 181°
2026-05-07 19:22 49.61079 44.32791 13634 ft 379 kts 181°
2026-05-07 19:22 49.58493 44.32562 13563 ft 369 kts 181°
2026-05-07 19:22 49.55869 44.32385 13440 ft 385 kts 178°
2026-05-07 19:22 49.53207 44.32446 13070 ft 384 kts 177°
2026-05-07 19:23 49.50580 44.32492 12773 ft 370 kts 177°
2026-05-07 19:23 49.47992 44.32538 12145 ft 375 kts 177°
2026-05-07 19:23 49.45385 44.32581 11524 ft 373 kts 178°
2026-05-07 19:23 49.42806 44.32620 10898 ft 367 kts 177°
2026-05-07 19:24 49.40288 44.32657 10322 ft 362 kts 178°
2026-05-07 19:24 49.37789 44.32695 9818 ft 359 kts 178°
2026-05-07 19:24 49.35281 44.32732 9320 ft 358 kts 178°
2026-05-07 19:24 49.32789 44.32769 8819 ft 356 kts 178°
2026-05-07 19:25 49.30341 44.32805 8325 ft 352 kts 178°
2026-05-07 19:25 49.27878 44.32841 7842 ft 348 kts 178°
2026-05-07 19:25 49.25507 44.32875 7746 ft 340 kts 178°
2026-05-07 19:25 49.23114 44.32909 7754 ft 341 kts 178°
2026-05-07 19:26 49.20804 44.32942 7739 ft 321 kts 178°
2026-05-07 19:26 49.18637 44.32973 7740 ft 304 kts 178°
2026-05-07 19:26 49.16579 44.33003 7737 ft 284 kts 178°
2026-05-07 19:26 49.14673 44.33501 7746 ft 284 kts 155°
2026-05-07 19:27 49.12823 44.34837 7460 ft 298 kts 152°
2026-05-07 19:27 49.10971 44.36230 6986 ft 296 kts 152°
2026-05-07 19:27 49.09123 44.37638 6522 ft 297 kts 152°
2026-05-07 19:27 49.07283 44.39053 6048 ft 298 kts 151°
2026-05-07 19:28 49.05435 44.40480 5623 ft 297 kts 151°
2026-05-07 19:28 49.03589 44.41908 5298 ft 293 kts 151°
2026-05-07 19:28 49.01791 44.43301 4971 ft 289 kts 151°
2026-05-07 19:28 49.00008 44.44682 4644 ft 286 kts 151°
2026-05-07 19:29 48.98242 44.46050 4320 ft 282 kts 151°
2026-05-07 19:29 48.96514 44.47388 3997 ft 280 kts 151°
2026-05-07 19:29 48.94789 44.48723 3674 ft 277 kts 151°
2026-05-07 19:29 48.93057 44.50017 3350 ft 275 kts 153°
2026-05-07 19:30 48.91336 44.51260 3015 ft 271 kts 152°
2026-05-07 19:30 48.89657 44.52475 2760 ft 263 kts 152°
2026-05-07 19:30 48.88003 44.53603 2508 ft 256 kts 163°
2026-05-07 19:30 48.86308 44.53713 2495 ft 238 kts 196°
2026-05-07 19:31 48.84947 44.52537 2518 ft 216 kts 230°
2026-05-07 19:31 48.83981 44.50791 2528 ft 213 kts 233°
2026-05-07 19:31 48.83172 44.49110 2458 ft 189 kts 240°
2026-05-07 19:31 48.82503 44.47393 2222 ft 185 kts 244°
2026-05-07 19:32 48.81908 44.45702 1977 ft 178 kts 245°
2026-05-07 19:32 48.81365 44.44071 1775 ft 168 kts 246°
2026-05-07 19:32 48.80870 44.42536 1537 ft 154 kts 247°
2026-05-07 19:32 48.80529 44.41469 1360 ft 142 kts 246°
2026-05-07 19:33 48.80124 44.40188 1163 ft 130 kts 246°
2026-05-07 19:33 48.79725 44.38926 1029 ft 136 kts 245°
2026-05-07 19:33 48.79312 44.37620 864 ft 137 kts 244°
2026-05-07 19:33 48.78894 44.36301 657 ft 139 kts 245°
2026-05-07 19:34 48.78483 44.35002 479 ft 134 kts 243°
2026-05-07 19:34 48.78113 44.33829 441 ft 100 kts 245°
2026-05-07 19:34 48.77884 44.33114 427 ft 55 kts 244°
2026-05-07 19:34 48.77748 44.32685 420 ft 42 kts 244°
2026-05-07 19:35 48.77620 44.32283 410 ft 42 kts 244°
2026-05-07 19:35 48.77510 44.31935 403 ft 32 kts 245°
2026-05-07 19:35 48.77412 44.31623 393 ft 32 kts 244°
2026-05-07 19:35 48.77326 44.31352 388 ft 17 kts 248°
2026-05-07 19:36 48.77360 44.31236 386 ft 13 kts 335°
2026-05-07 19:36 48.77450 44.31233 386 ft 12 kts 27°
2026-05-07 19:36 48.77499 44.31329 387 ft 10 kts 65°
2026-05-07 19:36 48.77540 44.31460 390 ft 19 kts 64°
2026-05-07 19:37 48.77592 44.31627 393 ft 19 kts 64°
2026-05-07 19:37 48.77645 44.31792 397 ft 16 kts 64°
2026-05-07 19:37 48.77703 44.31974 403 ft 20 kts 64°
2026-05-07 19:37 48.77760 44.32154 407 ft 17 kts 64°
2026-05-07 19:38 48.77808 44.32305 410 ft 14 kts 64°
2026-05-07 19:38 48.77840 44.32405 413 ft 11 kts 64°
2026-05-07 19:38 48.77867 44.32492 417 ft 6 kts 64°
2026-05-07 19:38 48.77890 44.32564 418 ft 11 kts 64°
2026-05-07 19:39 48.77945 44.32738 422 ft 25 kts 64°
2026-05-07 19:39 48.78039 44.33033 427 ft 36 kts 64°
2026-05-07 19:39 48.78148 44.33376 434 ft 34 kts 64°
2026-05-07 19:39 48.78247 44.33687 439 ft 31 kts 63°
2026-05-07 19:40 48.78337 44.33973 446 ft 27 kts 65°
2026-05-07 19:40 48.78412 44.34179 450 ft 18 kts 40°
2026-05-07 19:40 48.78527 44.34179 449 ft 16 kts 345°
2026-05-07 19:40 48.78619 44.34142 447 ft 1 kts
2026-05-07 19:41 48.78651 44.34198 447 ft 15 kts 62°
2026-05-07 19:41 48.78691 44.34346 450 ft 14 kts 68°
2026-05-07 19:41 48.78724 44.34473 453 ft 11 kts 68°
2026-05-07 19:41 48.78746 44.34555 454 ft 6 kts 68°
2026-05-07 19:42 48.78760 44.34611 455 ft 5 kts 68°
2026-05-07 19:42 48.78770 44.34649 456 ft 3 kts 68°
2026-05-07 19:42 48.78780 44.34687 457 ft 2 kts 62°
2026-05-07 19:42 48.78790 44.34702 458 ft 2 kts 28°
2026-05-07 19:43 48.78825 44.34698 458 ft 5 kts 340°
2026-05-07 19:43 48.78841 44.34689 457 ft 0 kts 339°
2026-05-07 19:43 48.78842 44.34688 457 ft 0 kts 339°